This demonstration page uses our WeatherBlox Daily Observations layout. Learn more.

Left ArrowRight Arrow

34.02893, -84.19858

Hourly Observations for August 22, 2020

Temp ( °F °C ) Dew Point ( °F °C ) Humidity (%) Winds ( mph kmh ) Pressure ( in mb ) Visibility ( mi km ) Precip ( " mm )
12:53 am 00:53 Clear 66 18.9 66 18.9 100 100 Calm 29.92 1013 10 16 0.00 0.00
1:53 am 01:53 Mostly Clear 66 18.9 66 18.9 100 100 Calm 29.92 1013 10 16 0.00 0.00
2:53 am 02:53 Partly Cloudy 67 19.4 67 19.4 100 100 Calm 29.91 1013 9 14 0.00 0.00
3:53 am 03:53 Clear 66 18.9 66 18.9 100 100 Calm 29.92 1013 8 13 0.00 0.00
4:53 am 04:53 Partly Cloudy with Mist and Fog 66 18.9 66 18.9 100 100 Calm 29.91 1013 6 10 0.00 0.00
5:53 am 05:53 Clear with Mist and Fog 67 19.4 67 19.4 100 100 Calm 29.91 1013 5 8 0.00 0.00
6:21 am 06:21 Partly Cloudy with Mist and Fog 67 19.4 67 19.4 100 100 Calm 29.95 1014 4 6 0.00 0.00
6:31 am 06:31 Mostly Cloudy with Mist and Fog 66 18.9 66 18.9 100 100 Calm 29.96 1014 2 3 0.00 0.00
6:38 am 06:38 Mostly Cloudy with Mist and Fog 66 18.9 66 18.9 100 100 Calm 29.96 1014 2 2 0.00 0.00
6:43 am 06:43 Cloudy with Mist and Fog 66 18.9 66 18.9 100 100 Calm 29.96 1014 3 5 0.00 0.00
6:53 am 06:53 Mostly Cloudy with Mist and Fog 66 18.9 66 18.9 100 100 Calm 29.94 1014 4 6 0.00 0.00
6:58 am 06:58 Partly Cloudy with Mist and Fog 66 18.9 66 18.9 100 100 Calm 29.95 1014 3 4 0.00 0.00
7:07 am 07:07 Partly Cloudy with Mist and Fog 66 18.9 66 18.9 100 100 Calm 29.95 1014 2 3 0.00 0.00
7:25 am 07:25 Sunny with Fog 66 18.9 66 18.9 100 100 Calm 29.96 1014 1 1 0.00 0.00
7:35 am 07:35 Sunny with Mist and Fog 66 18.9 66 18.9 100 100 Calm 29.97 1015 1 2 0.00 0.00
7:46 am 07:46 Sunny with Mist and Fog 67 19.4 67 19.4 100 100 Calm 29.97 1015 2 3 0.00 0.00
7:51 am 07:51 Mostly Cloudy with Mist and Fog 68 20 68 20 100 100 Calm 29.96 1015 1 2 0.00 0.00
7:53 am 07:53 Mostly Cloudy with Mist and Fog 68 20 68 20 100 100 Calm 29.96 1015 1 2 0.00 0.00
8:14 am 08:14 Mostly Cloudy with Fog 69 20.6 69 20.6 100 100 Calm 29.97 1015 1 1 0.00 0.00
8:45 am 08:45 Cloudy with Mist and Fog 70 21.1 70 21.1 100 100 Calm 29.97 1015 3 5 0.00 0.00
8:53 am 08:53 Cloudy with Mist and Fog 70 21.1 70 21.1 100 100 Calm 29.98 1015 2 2 0.00 0.00
9:00 am 09:00 Cloudy with Mist and Fog 70 21.1 70 21.1 100 100 Calm 29.98 1015 3 5 0.00 0.00
9:16 am 09:16 Cloudy with Mist and Fog 70 21.1 70 21.1 100 100 Calm 29.99 1016 3 4 0.00 0.00
9:31 am 09:31 Cloudy with Mist and Fog 71 21.7 70 21.1 96 96 Calm 29.99 1016 4 6 0.00 0.00
9:43 am 09:43 Cloudy 71 21.7 70 21.1 96 96 Calm 29.99 1016 8 13 0.00 0.00
9:53 am 09:53 Cloudy 72 22.2 70 21.1 94 94 Calm 29.99 1016 9 14 0.00 0.00
10:01 am 10:01 Cloudy 71 21.7 69 20.6 94 94 Calm 29.99 1016 9 14 0.00 0.00
10:38 am 10:38 Partly Cloudy 74 23.3 69 20.6 85 85 Calm 29.99 1016 10 16 0.00 0.00
10:53 am 10:53 Mostly Sunny 74 23.3 70 21.1 88 88 Calm 29.99 1016 10 16 0.00 0.00
11:46 am 11:46 Mostly Cloudy 77 25 70 21.1 79 79 Calm 29.98 1015 10 16 0.00 0.00
11:53 am 11:53 Partly Cloudy 78 25.6 69 20.6 74 74 Calm 29.98 1015 10 16 0.00 0.00
12:53 pm 12:53 Partly Cloudy 80 26.7 69 20.6 69 69 Calm 29.97 1015 10 16 0.00 0.00
1:53 pm 13:53 Mostly Cloudy 82 27.8 69 20.6 65 65 Calm 29.96 1015 10 16 0.00 0.00
2:53 pm 14:53 Partly Cloudy 82 27.8 69 20.6 65 65 SSE 7 11 29.96 1014 10 16 0.00 0.00
3:53 pm 15:53 Partly Cloudy 81 27.2 69 20.6 67 67 SSE 6 9 29.96 1015 10 16 0.00 0.00
4:53 pm 16:53 Mostly Sunny 82 27.8 69 20.6 65 65 SSE 7 11 29.95 1014 10 16 0.00 0.00
5:53 pm 17:53 Partly Cloudy 81 27.2 69 20.6 67 67 SE 7 11 29.95 1014 10 16 0.00 0.00
6:53 pm 18:53 Mostly Sunny 81 27.2 69 20.6 67 67 SE 7 11 29.95 1014 10 16 0.00 0.00
7:53 pm 19:53 Sunny 78 25.6 69 20.6 74 74 SSE 5 7 29.95 1014 10 16 0.00 0.00
8:53 pm 20:53 Clear 76 24.4 71 21.7 85 85 SE 3 6 29.98 1015 10 16 0.00 0.00
9:53 pm 21:53 Mostly Cloudy 73 22.8 72 22.2 96 96 SE 3 6 29.99 1016 10 16 0.02 0.51
10:53 pm 22:53 Clear 73 22.8 71 21.7 94 94 SSE 3 6 30.01 1016 10 16 0.00 0.00
11:53 pm 23:53 Clear 72 22.2 71 21.7 97 97 Calm 30.01 1016 10 16 0.00 0.00

Powered by AerisWeather